EW7644 Weather Reports


time (UTC)temp
C
wind
direction
speed
KPH
gust
KPH
rain 1hr
cm
rain 24hr
cm
rain mn
cm
humidity
%
barometer
mb
20260507001513 28 252 6.4 19.3 0.00 0.00 0.00 7 1010.2
20260507000022 28 219 11.3 24.1 0.00 0.00 0.00 7 1010.3
20260506234516 28 279 9.7 17.7 0.00 0.00 0.00 7 1010.1
20260506233011 28 265 8.0 19.3 0.00 0.00 0.00 6 1010.3
20260506231505 28 213 9.7 16.1 0.00 0.00 0.00 7 1010.6
20260506230021 29 195 6.4 14.5 0.00 0.00 0.00 7 1010.7
20260506224513 27 327 6.4 17.7 0.00 0.00 0.00 8 1011.0
20260506223016 28 252 3.2 12.9 0.00 0.00 0.00 7 1011.2
20260506221524 27 326 3.2 16.1 0.00 0.00 0.00 8 1011.4
20260506220018 28 287 11.3 19.3 0.00 0.00 0.00 7 1011.5
20260506214511 27 153 6.4 16.1 0.00 0.00 0.00 8 1011.7
20260506213024 27 253 6.4 17.7 0.00 0.00 0.00 8 1012.2
20260506211521 27 195 6.4 14.5 0.00 0.00 0.00 8 1012.4
20260506210016 26 156 9.7 17.7 0.00 0.00 0.00 9 1012.4
20260506204508 26 299 8.0 14.5 0.00 0.00 0.00 10 1012.7
20260506203032 27 170 9.7 19.3 0.00 0.00 0.00 9 1012.8
20260506201513 25 80 3.2 9.7 0.00 0.00 0.00 11 1013.0
20260506200009 25 200 3.2 12.9 0.00 0.00 0.00 11 1013.2
20260506194524 25 288 6.4 14.5 0.00 0.00 0.00 11 1013.4
20260506193016 25 194 3.2 14.5 0.00 0.00 0.00 11 1013.6
20260506191511 25 178 3.2 12.9 0.00 0.00 0.00 11 1013.7
20260506190008 24 28 6.4 12.9 0.00 0.00 0.00 12 1013.8
20260506184526 23 205 3.2 14.5 0.00 0.00 0.00 13 1014.0
20260506183018 22 317 3.2 14.5 0.00 0.00 0.00 14 1014.3
20260506181512 21 240 3.2 16.1 0.00 0.00 0.00 15 1014.4
20260506180012 22 225 4.8 11.3 0.00 0.00 0.00 15 1014.4
20260506174523 22 261 4.8 11.3 0.00 0.00 0.00 16 1014.4
20260506173020 21 196 4.8 12.9 0.00 0.00 0.00 17 1014.4
20260506171514 21 178 8.0 16.1 0.00 0.00 0.00 17 1014.3
20260506170004 20 198 3.2 12.9 0.00 0.00 0.00 18 1014.2
20260506164520 20 219 4.8 14.5 0.00 0.00 0.00 19 1014.2
20260506163023 19 201 6.4 11.3 0.00 0.00 0.00 20 1014.3
20260506161514 18 186 9.7 16.1 0.00 0.00 0.00 21 1014.2
20260506160010 18 192 4.8 11.3 0.00 0.00 0.00 22 1014.2
20260506154522 17 146 1.6 6.4 0.00 0.00 0.00 23 1014.2
20260506153015 17 163 3.2 9.7 0.00 0.00 0.00 24 1014.0
20260506151509 16 193 1.6 6.4 0.00 0.00 0.00 26 1014.0
20260506150025 16 244 1.6 4.8 0.00 0.00 0.00 26 1013.9
20260506144522 15 338 1.6 3.2 0.00 0.00 0.00 27 1013.9
20260506143022 15 350 0.0 0.0 0.00 0.00 0.00 28 1013.7
20260506141523 13 350 0.0 3.2 0.00 0.00 0.00 30 1013.6
20260506140018 12 349 3.2 4.8 0.00 0.00 0.00 32 1013.5
20260506134513 11 306 1.6 3.2 0.00 0.00 0.00 36 1013.4
20260506133009 10 306 1.6 3.2 0.00 0.00 0.00 35 1013.2
20260506131507 10 306 3.2 4.8 0.00 0.00 0.00 35 1013.0
20260506130021 10 302 0.0 4.8 0.00 0.00 0.00 37 1012.8
20260506124514 10 301 1.6 4.8 0.00 0.00 0.00 37 1012.7
20260506123009 10 301 3.2 8.0 0.00 0.00 0.00 37 1012.5
20260506121521 9 136 3.2 4.8 0.00 0.00 0.00 36 1012.6
20260506120019 10 124 0.0 0.0 0.00 0.00 0.00 34 1012.4
20260506114513 10 141 0.0 0.0 0.00 0.00 0.00 34 1012.5
20260506113006 10 141 0.0 0.0 0.00 0.00 0.00 33 1012.5
20260506111523 10 141 0.0 0.0 0.00 0.00 0.00 33 1012.4
20260506110020 10 142 0.0 0.0 0.00 0.00 0.00 33 1012.3
20260506104509 10 165 0.0 0.0 0.00 0.00 0.00 33 1012.2
20260506103004 10 165 0.0 0.0 0.00 0.00 0.00 32 1012.0
20260506101533 10 165 0.0 0.0 0.00 0.00 0.00 32 1011.9
20260506100015 10 165 0.0 0.0 0.00 0.00 0.00 32 1011.8
20260506094520 11 165 0.0 0.0 0.00 0.00 0.00 32 1011.7
20260506093014 11 165 0.0 0.0 0.00 0.00 0.00 31 1011.5
20260506091522 11 165 0.0 0.0 0.00 0.00 0.00 30 1011.5
20260506090015 12 165 0.0 0.0 0.00 0.00 0.00 30 1011.5
20260506084510 12 165 0.0 3.2 0.00 0.00 0.00 30 1011.5
20260506083020 13 165 1.6 3.2 0.00 0.00 0.00 27 1011.4
20260506081516 13 165 1.6 4.8 0.00 0.00 0.00 27 1011.3
20260506073034 15 165 4.8 9.7 0.00 0.00 0.00 26 1011.2
20260506071515 15 150 6.4 12.9 0.00 0.00 0.00 25 1011.0
20260506061518 15 159 4.8 11.3 0.00 0.00 0.00 24 1010.7
20260506044535 16 137 4.8 8.0 0.00 0.00 0.00 18 1010.0
20260506043008 16 143 4.8 11.3 0.00 0.00 0.00 18 1009.9
20260506041520 16 135 4.8 11.3 0.00 0.00 0.00 18 1009.6
20260506040016 16 125 4.8 11.3 0.00 0.00 0.00 18 1009.4
20260506034537 16 163 6.4 12.9 0.00 0.00 0.00 17 1009.2
20260506033008 17 186 0.0 4.8 0.00 0.00 0.00 16 1009.0
20260506031503 17 186 1.6 4.8 0.00 0.00 0.00 15 1008.9
20260506030018 18 186 1.6 8.0 0.00 0.00 0.00 14 1008.6
20260506024513 18 193 4.8 11.3 0.00 0.00 0.00 14 1008.5
20260506023009 19 219 1.6 6.4 0.00 0.00 0.00 13 1008.3
20260506021523 19 211 3.2 12.9 0.00 0.00 0.00 13 1008.1
20260506020014 20 203 3.2 12.9 0.00 0.00 0.00 13 1007.8
20260506014517 21 253 3.2 14.5 0.00 0.00 0.00 12 1007.6
20260506013008 21 319 3.2 12.9 0.00 0.00 0.00 12 1007.6
20260506011521 21 218 4.8 14.5 0.00 0.00 0.00 12 1007.4
20260506010016 22 213 1.6 9.7 0.00 0.00 0.00 12 1007.3
20260506004525 22 218 6.4 14.5 0.00 0.00 0.00 12 1007.2
20260506003036 21 205 12.9 24.1 0.00 0.00 0.00 12 1007.1